Tracking 23758 objects as of 28-Oct-2021
HD Live streaming from Space Station
objects crossing your sky now

SL-8 DEB

Track SL-8 DEB now!
10-day predictions


NORAD ID: 27743
Int'l Code: 1991-009CY
Perigee: 1,491.6 km
Apogee: 1,707.3 km
Inclination: 74.1 °
Period: 118.0 minutes
Semi major axis: 7970 km
RCS: 0.0193 m2 (small)
Launch date: February 12, 1991
Source: Commonwealth of Independent States (former USSR) (CIS)
Launch site: PLESETSK MISSILE AND SPACE COMPLEX (PKMTR)

Note: This is SATELLITE DEBRIS
aabbcc
Your satellite tracking list
Your tracking list is empty




NASA's NSSDC Master Catalog

Two Line Element Set (TLE):
1 27743U 91009CY  21301.07422542 -.00000187  00000-0 -16248-2 0  9996
2 27743  74.0637 184.5869 0135344 160.2122 270.6194 12.20051518 49060
Source of the keplerian elements: AFSPC